Find Starlink 31485

NORAD ID: 59308 Int'l Des: 2024-056 Owner: SPXS Country: US Constellation: starlink operational
LEOCIRCULAR

現在のビュー

3D地球を読み込み中...

About Starlink 31485

Starlink 31485 (NORAD 59308) is a starlink constellation satellite (v2 mini) launched Mar 24, 2024 by SPXS of US. It operates in LEO, CIRCULAR orbit with a mass of 730.00 kg.

Starlink 31485について

説明を読み込み中...

次回通過

Passes for default location (London). Set your location on the main map for personalized predictions.

高度履歴

Loading altitude history...

軌道要素

1 59308U 24056N 26177.83521852 -.00000516 00000-0 -92205-5 0 9996
2 59308 43.0035 334.5732 0001574 262.7785 97.2888 15.27564280127847
Epoch: Jun 26, 2026 • Age: 19 hours

現在のステータス

高度 484.8 km
速度 7.63 km/s
衛星直下点 31.89°N, 130.53°W
打ち上げ日 Mar 24, 2024
運用期間 2.2 years
タイプ internet

技術仕様

分類 Payload
質量 730.00 kg
乾燥質量 700.00 kg
総質量 730.00 kg
長さ 0.30 m
直径 4.10 m
スパン 29.00 m
形状 Box + pan
製造者 SPXS
バスタイプ Starlink V2M
フェーズステータス In Orbit
所有者/国 SPXS/US

Most Searched